Tracking 30415 objects as of 16-May-2025
HD Live streaming from Space Station
objects crossing your sky now

STARLINK-6335

Track STARLINK-6335 now!
10-day predictions
STARLINK-6335 is classified as:


NORAD ID: 56527
Int'l Code: 2023-065AA
Perigee: 565.5 km
Apogee: 567.0 km
Inclination: 43.0 °
Period: 95.8 minutes
Semi major axis: 6937 km
RCS: Unknown
Launch date: May 14, 2023
Source: United States (US)
Launch site: AIR FORCE EASTERN TEST RANGE (AFETR)
Your satellite tracking list
Your tracking list is empty




NASA's NSSDC Master Catalog

Two Line Element Set (TLE):
1 56527U 23065AA  25134.76356049 -.00000141  00000-0  46003-5 0  9991
2 56527  43.0042  34.1757 0001072 274.0829  85.9891 15.02533038110887
Source of the keplerian elements: AFSPC